Date,TemperatureHighF,TemperatureAvgF,TemperatureLowF,DewpointHighF,DewpointAvgF,DewpointLowF,HumidityHigh,HumidityAvg,HumidityLow,PressureMaxIn,PressureMinIn,WindSpeedMaxMPH,WindSpeedAvgMPH,GustSpeedMaxMPH,PrecipitationSumIn
2013-8-1,78.8,72.0,66.7,67.0,62.2,52.8,91,73,42,29.12,29.03,8,1,8,0.00
2013-8-2,78.8,70.7,63.0,61.6,57.4,51.8,80,64,44,29.14,29.03,6,0,6,0.00
2013-8-3,79.5,74.0,69.8,66.4,62.7,59.3,74,68,61,29.09,29.03,5,0,5,0.00
2013-8-4,76.8,69.2,62.1,61.3,54.7,47.1,78,61,40,29.20,29.09,6,1,6,0.00
2013-8-5,77.5,68.1,59.5,56.9,53.1,49.4,79,60,39,29.20,29.06,3,0,3,0.00
2013-8-6,80.1,72.4,66.4,66.3,59.9,54.0,76,65,56,29.09,29.03,3,0,3,0.00
2013-8-7,83.3,76.1,70.0,71.5,67.4,63.7,93,75,60,29.06,29.00,6,1,6,0.00
2013-8-8,83.3,77.2,73.0,71.6,69.1,66.2,89,77,58,29.09,29.00,6,1,6,0.00
2013-8-9,78.1,74.2,70.0,77.3,72.8,65.7,98,96,74,29.09,29.00,8,0,8,1.62
2013-8-10,77.0,73.6,70.5,74.3,71.8,69.9,98,94,86,29.20,29.09,2,0,2,0.29
2013-8-11,81.7,73.7,71.4,73.2,70.3,65.0,96,90,57,29.17,29.09,6,0,6,0.00
2013-8-12,79.9,73.0,67.6,70.9,66.6,63.5,91,81,62,29.14,28.97,5,0,5,0.00
2013-8-13,76.5,72.2,65.7,68.8,62.8,49.6,92,74,50,29.14,28.94,8,1,8,0.00
2013-8-14,71.6,63.3,56.1,50.2,47.5,42.1,73,57,38,29.20,29.12,5,1,5,0.00
2013-8-15,73.0,63.2,54.1,54.0,49.5,45.3,78,62,46,29.20,29.14,5,0,5,0.00
2013-8-16,76.5,66.1,57.2,55.8,51.7,47.8,79,61,41,29.20,29.12,4,0,4,0.00
2013-8-17,79.9,69.0,60.4,60.4,55.6,51.2,77,63,45,29.23,29.17,3,0,3,0.00
2013-8-18,78.6,70.0,62.6,62.3,59.1,54.8,85,69,48,29.23,29.17,4,0,4,0.00
2013-8-19,82.2,72.2,64.9,66.6,60.3,55.1,91,68,42,29.23,29.17,4,0,4,0.00
2013-8-20,82.6,73.4,65.7,66.0,61.9,58.9,85,68,47,29.26,29.17,3,0,3,0.00
2013-8-21,80.8,74.3,68.9,70.7,64.7,61.1,85,72,59,29.26,29.17,6,1,6,0.04
2013-8-22,83.3,75.8,69.3,69.3,65.1,61.2,91,70,49,29.23,29.17,8,1,8,0.05
2013-8-23,82.9,74.6,70.3,65.6,63.8,60.7,82,70,51,29.23,29.12,5,0,5,0.00
2013-8-24,83.3,73.0,64.4,64.5,58.7,53.7,80,63,37,29.35,29.23,4,0,4,0.00
2013-8-25,83.8,71.9,62.1,61.8,56.5,50.4,80,61,32,29.38,29.32,4,0,4,0.00
2013-8-26,85.6,75.3,66.4,66.6,62.1,56.8,82,65,42,29.35,29.23,6,1,6,0.00
2013-8-27,85.5,78.4,72.3,70.6,67.5,63.7,87,70,55,29.23,29.14,6,1,6,0.00
2013-8-28,91.0,80.8,73.8,70.9,67.1,61.2,89,66,38,29.14,29.06,13,1,13,0.00
2013-8-29,84.4,78.0,72.9,68.5,66.1,62.8,80,67,49,29.17,29.09,4,0,4,0.00
2013-8-30,87.1,76.7,68.9,69.3,64.0,60.1,86,66,41,29.14,28.91,5,1,5,0.00
2013-8-31,87.8,75.4,68.2,72.3,67.2,62.6,94,76,59,29.00,28.88,14,1,14,0.53